Content
SEND FEEDBACK

Daily
Averages
Monthly
Summary
United States of America

SOUTH LAKE TAHOE - AIRPORT, CALIFORNIA


Home > North America > United States > California
Elevation: 6250 feet     Latitude: 38 54N     Longitude: 120 00W

WEATHER
 
SELECT A DAY
Number of Records: 177,833;   Date Range: 1/1/95 - 11/23/14
 
SHARE

PRINT THIS DATA

[ ← Previous Day ]
WEATHER ALMANAC - JANUARY 16, 2013
[ Next Day → ]
[ °C ]   °F
Weather ElementAverageHighLow
Temperature24 °F48 °F (1:53 pm)9 °F (7:54 am)
Dewpoint10.7 °F19.9 °F (4:53 pm)3 °F (7:54 am)
Humidity62 %81 % (4:53 am)22 % (12:53 pm)
Barometer30.58 in30.70 in (7:54 am)30.46 in (2:53 pm)
Wind Speed1.9 mph5.8 mph (11:53 am)
Weather ElementAverage
Visibility9.3 mi
Wind DirectionENE (64 °)

Weather ElementTotal
Precipitation---
Heating Degree Days36.5 (Base 65)
Averaged from 25 records on January 16, 2013
WEATHER CONDITIONS BREAKOUT
WIND DIRECTION BREAKOUT
WEATHER BY HOUR - JANUARY 16, 2013
[ °C ]   °F
Local TimeTemperatureDewpointHumidityBarometerVisibilityWind DirectionWind SpeedGust SpeedPrecipitationEventsConditions
1:53 AM16.0 °F10.0 °F77 %30.58 in10.0 miCalmClear
2:53 AM16.0 °F10.0 °F77 %30.59 in8.0 miSSW (210°)3.5 mphClear
3:53 AM15.1 °F10.0 °F80 %30.59 in9.0 miCalmClear
4:53 AM12.9 °F8.1 °F81 %30.62 in9.0 miCalmClear
5:53 AM14.0 °F9.0 °F80 %30.63 in10.0 miCalmClear
6:53 AM10.9 °F6.1 °F81 %30.66 in10.0 miCalmClear
7:54 AM9.0 °F3.0 °F77 %30.70 in10.0 miCalm
8:29 AM12.2 °F6.8 °F79 %30.55 in3.0 miSouth (190°)4.6 mphHaze
8:39 AM14.0 °F8.6 °F79 %30.55 in8.0 miSouth (180°)4.6 mphClear
8:53 AM16.0 °F9.0 °F74 %30.66 in10.0 miSSW (200°)4.6 mphClear
9:53 AM26.1 °F14.0 °F60 %30.61 in10.0 miSouth (190°)3.5 mphClear
10:53 AM37.0 °F16.0 °F42 %30.55 in10.0 miCalmClear
11:53 AM44.1 °F12.9 °F28 %30.50 in10.0 miNNE (20°)5.8 mphClear
12:53 PM46.9 °F10.0 °F22 %30.48 in10.0 miNNE (20°)5.8 mphClear
1:53 PM48.0 °F10.0 °F22 %30.47 in10.0 miVariable4.6 mphClear
2:53 PM46.9 °F10.9 °F23 %30.46 in10.0 miCalmClear
3:53 PM41.0 °F17.1 °F38 %30.51 in10.0 miCalmClear
4:53 PM34.0 °F19.9 °F56 %30.54 in10.0 miCalmClear
5:53 PM27.0 °F16.0 °F63 %30.58 in10.0 miCalmClear
6:53 PM24.1 °F12.9 °F62 %30.63 in10.0 miCalmClear
7:53 PM21.9 °F12.9 °F68 %30.66 in10.0 miSouth (190°)3.5 mphClear
8:53 PM19.0 °F10.0 °F68 %30.63 in10.0 miCalmClear
9:53 PM18.0 °F9.0 °F68 %30.58 in10.0 miCalmClear
10:53 PM16.0 °F8.1 °F71 %30.54 in9.0 miSSW (210°)3.5 mphClear
11:53 PM14.0 °F7.0 °F74 %30.51 in7.0 miSouth (190°)3.5 mphClear
Hourly data recorded from KTVL, located miles away from South Lake Tahoe - Airport, California







STORIES FROM OUR PARTNERS